Regional Weather Roundup
Issued by NWS

Home | Current Version | Previous Version | Graphics & Text | Print | Product List | Glossary On
Versions: 1 2 3 4 5 6 7 8 9 10 11 12 13 14 15 16 17 18 19 20 21 22 23 24 25 26 27 28 29 30 31 32 33 34 35 36 37 38 39 40 41 42 43 44 45 46 47 48 49 50
000
ASUS43 KFSD 210702
RWRSD

WEATHER ROUNDUP FOR SOUTH DAKOTA
NATIONAL WEATHER SERVICE SIOUX FALLS SD
200 AM CDT TUE OCT 21 2014

NOTE: "FAIR" INDICATES FEW OR NO CLOUDS BELOW 12,000 FEET WITH NO
SIGNIFICANT WEATHER AND/OR OBSTRUCTIONS TO VISIBILITY.


SDZ001>005-009-010-012>017-210800-
NORTHWEST AND NORTH CENTRAL SOUTH DAKOTA

CITY           SKY/WX    TMP DP  RH WIND       PRES   REMARKS
FAITH            N/A     52  40  63 SE16      29.83F
MOBRIDGE       CLEAR     57  36  45 SE14      29.88F
$$

SDZ012>016-024>037-041>051-057-063-072>074-210800-
SOUTHWEST AND SOUTH CENTRAL SOUTH DAKOTA

CITY           SKY/WX    TMP DP  RH WIND       PRES   REMARKS
RAPID CTY ARPT CLEAR     53  42  66 SE5       29.87S
PIERRE         CLEAR     53  38  56 E12       29.90F
CUSTER         CLEAR     55  34  45 W3        30.00S
PHILIP         CLEAR     56  39  53 SE3       29.87S
PINE RIDGE     CLEAR     60  40  47 S16G24    29.93F
SPEARFISH      FAIR      57  37  47 CALM      29.87F
WINNER         FAIR      62  41  46 S20       29.94F
$$

SDZ004>011-016>023-039-040-210800-
NORTHEAST SOUTH DAKOTA

CITY           SKY/WX    TMP DP  RH WIND       PRES   REMARKS
ABERDEEN       CLEAR     43  37  79 SE6       30.01R
WATERTOWN      CLEAR     45  36  70 SE5       30.05R
SISSETON         N/A     36  34  92 SE3       30.05R
$$

SDZ017-020-022-023-036>040-048>070-210800-
SOUTHEAST SOUTH DAKOTA

CITY           SKY/WX    TMP DP  RH WIND       PRES   REMARKS
SIOUX FALLS    CLEAR     41  36  82 CALM      30.06R
HURON          CLEAR     47  35  63 SE8       30.02R
CHAMBERLAIN    CLEAR     49  35  57 SE10      29.97S
MITCHELL       CLEAR     44  35  70 SE6       30.03S
YANKTON        CLEAR     43  37  81 E3        30.06R
$$

ABBREVIATIONS USED IN REMARKS
   TC - TEMPERATURE IN CELSIUS
  WCI - WIND CHILL INDEX
   HX - HEAT INDEX
  VSB - VISIBILITY




USA.gov is the U.S. government's official web portal to all federal, state and local government web resources and services.